This demonstration page uses our WeatherBlox Daily Observations layout. Learn more.

Left ArrowRight Arrow

Hourly Observations for May 12, 2022

Temp ( °F °C ) Dew Point ( °F °C ) Humidity (%) Winds ( mph kmh ) Pressure ( in mb ) Visibility ( mi km ) Precip ( " mm )
12:15 am 00:15 undefined 72 22.2 65 18.5 80 80 SE 6 9 30.11 1020 10 16 0.00 0.00
12:35 am 00:35 undefined 73 22.5 65 18.5 78 78 SE 6 9 30.11 1020 10 16 0.00 0.00
12:55 am 00:55 undefined 72 22.1 65 18.1 78 78 SE 5 7 30.12 1020 10 16 0.00 0.00
1:15 am 01:15 undefined 72 22.2 64 17.5 75 75 SE 5 7 30.12 1020 10 16 0.00 0.00
1:35 am 01:35 undefined 70 21.3 62 16.7 75 75 SE 5 7 30.12 1020 10 16 0.00 0.00
1:55 am 01:55 undefined 70 21.1 61 16.2 74 74 Calm 30.13 1020 10 16 0.00 0.00
2:15 am 02:15 undefined 69 20.8 60 15.8 73 73 Calm 30.13 1020 10 16 0.00 0.00
2:35 am 02:35 undefined 68 20.1 60 15.6 75 75 Calm 30.15 1021 10 16 0.00 0.00
2:55 am 02:55 undefined 67 19.3 60 15.5 79 79 Calm 30.14 1021 10 16 0.00 0.00
3:15 am 03:15 undefined 67 19.2 59 15 77 77 Calm 30.15 1021 10 16 0.00 0.00
3:35 am 03:35 undefined 66 18.9 58 14.6 76 76 Calm 30.15 1021 10 16 0.00 0.00
3:55 am 03:55 undefined 65 18.3 58 14.4 78 78 Calm 30.15 1021 10 16 0.00 0.00
4:15 am 04:15 undefined 62 16.8 58 14.7 88 88 Calm 30.16 1021 10 16 0.00 0.00
4:35 am 04:35 undefined 63 17.2 58 14.6 85 85 Calm 30.16 1021 10 16 0.00 0.00
4:55 am 04:55 undefined 62 16.7 58 14.5 87 87 Calm 30.16 1021 10 16 0.00 0.00
5:15 am 05:15 undefined 63 17.1 57 14.1 83 83 Calm 30.16 1021 10 16 0.00 0.00
5:35 am 05:35 undefined 63 17 56 13.4 79 79 Calm 30.16 1021 10 16 0.00 0.00
5:55 am 05:55 undefined 63 17.2 55 12.9 76 76 Calm 30.16 1021 10 16 0.00 0.00
6:15 am 06:15 undefined 63 17.1 54 12 72 72 Calm 30.17 1022 10 16 0.00 0.00
6:35 am 06:35 undefined 63 17.2 52 11.3 68 68 ESE 7 11 30.15 1021 10 16 0.00 0.00
6:55 am 06:55 undefined 63 17.2 51 10.7 66 66 Calm 30.15 1021 10 16 0.00 0.00
7:15 am 07:15 undefined 63 17.3 51 10.6 65 65 Calm 30.16 1021 10 16 0.00 0.00
7:35 am 07:35 undefined 65 18.3 50 10 59 59 SE 6 9 30.14 1021 10 16 0.00 0.00
7:55 am 07:55 undefined 67 19.2 49 9.7 54 54 SE 7 11 30.15 1021 10 16 0.00 0.00
8:15 am 08:15 undefined 67 19.7 50 10 54 54 SE 7 11 30.15 1021 10 16 0.00 0.00
8:35 am 08:35 Sunny 69 20.6 50 9.8 50 50 SSE 6 9 30.14 1021 10 16 0.00 0.00
8:55 am 08:55 Sunny 71 21.5 48 9.1 45 45 SSE 7 11 30.14 1021 10 16 0.00 0.00
9:15 am 09:15 Sunny 73 22.5 47 8.6 41 41 SSE 10 17 30.15 1021 10 16 0.00 0.00
9:35 am 09:35 Sunny 74 23.2 47 8.6 39 39 SSE 7 11 30.16 1021 10 16 0.00 0.00
9:55 am 09:55 Sunny 75 24 47 8.1 36 36 SSE 7 11 30.15 1021 10 16 0.00 0.00
10:15 am 10:15 Sunny 76 24.3 46 8 35 35 SSE 8 13 30.15 1021 10 16 0.00 0.00
10:35 am 10:35 Sunny 77 25 46 7.7 33 33 Calm 30.15 1021 10 16 0.00 0.00
10:55 am 10:55 Sunny 78 25.7 46 8 33 33 SE 10 17 30.15 1021 10 16 0.00 0.00
11:15 am 11:15 Sunny 79 26.2 47 8.3 32 32 E 9 15 30.15 1021 10 16 0.00 0.00
11:35 am 11:35 Sunny 80 26.5 45 7.2 29 29 Calm 30.14 1021 10 16 0.00 0.00
11:55 am 11:55 Sunny 80 26.9 47 8.1 30 30 ESE 9 15 30.14 1021 10 16 0.00 0.00
12:15 pm 12:15 Sunny 81 27.3 46 7.6 29 29 SE 8 13 30.13 1020 10 16 0.00 0.00
12:35 pm 12:35 Sunny 81 27.3 44 6.6 27 27 SSE 10 17 30.13 1020 10 16 0.00 0.00
12:55 pm 12:55 Sunny 82 27.9 44 6.5 26 26 SSE 12 19 30.11 1020 10 16 0.00 0.00
1:15 pm 13:15 Sunny 83 28.3 42 5.8 24 24 SE 9 15 30.10 1019 10 16 0.00 0.00
1:35 pm 13:35 Sunny 83 28.3 42 5.7 24 24 SE 12 19 30.09 1019 10 16 0.00 0.00
1:55 pm 13:55 Sunny 83 28.6 44 6.5 25 25 SE 9 15 30.09 1019 10 16 0.00 0.00
2:15 pm 14:15 Sunny 84 29.1 43 6 23 23 SSE 12 19 30.08 1019 10 16 0.00 0.00
2:35 pm 14:35 Sunny 85 29.4 43 6.3 23 23 SSE 7 11 30.08 1018 10 16 0.00 0.00
2:55 pm 14:55 Sunny 85 29.5 43 6.3 23 23 SE 8 13 30.07 1018 10 16 0.00 0.00
3:15 pm 15:15 Sunny 86 29.9 42 5.5 21 21 SE 14 22 30.06 1018 10 16 0.00 0.00
3:35 pm 15:35 Sunny 86 30 41 5.2 21 21 SE 10 17 30.05 1018 10 16 0.00 0.00
3:55 pm 15:55 Sunny 86 30.1 40 4.4 20 20 SE 8 13 30.04 1017 10 16 0.00 0.00
4:15 pm 16:15 Sunny 86 30.1 40 4.4 20 20 ESE 12 19 30.04 1017 10 16 0.00 0.00
4:35 pm 16:35 Sunny 86 30.1 40 4.3 19 19 ESE 10 17 30.04 1017 10 16 0.00 0.00
4:55 pm 16:55 Sunny 86 30.2 41 4.9 20 20 SE 9 15 30.03 1017 10 16 0.00 0.00
5:15 pm 17:15 Sunny 86 30 42 5.4 21 21 SE 8 13 30.02 1017 10 16 0.00 0.00
5:35 pm 17:35 Sunny 86 30 43 6.3 22 22 SE 8 13 30.02 1017 10 16 0.00 0.00
5:55 pm 17:55 Sunny 86 29.9 43 6.1 22 22 SE 9 15 30.02 1017 10 16 0.00 0.00
6:15 pm 18:15 Sunny 85 29.6 43 5.9 22 22 S 6 9 30.02 1016 10 16 0.00 0.00
6:35 pm 18:35 Sunny 85 29.5 44 6.8 24 24 SE 5 7 30.02 1016 10 16 0.00 0.00
6:55 pm 18:55 Sunny 84 29.1 45 7.4 25 25 SSE 5 7 30.01 1016 10 16 0.00 0.00
7:15 pm 19:15 Sunny 84 28.8 47 8.2 27 27 SE 3 6 30.01 1016 10 16 0.00 0.00
7:35 pm 19:35 Sunny 83 28.4 46 7.8 27 27 ESE 8 13 30.00 1016 10 16 0.00 0.00
7:55 pm 19:55 Sunny 81 27.1 47 8.6 31 31 ESE 8 13 30.00 1016 10 16 0.00 0.00
8:15 pm 20:15 Sunny 80 26.4 46 7.8 31 31 ESE 9 15 30.01 1016 10 16 0.00 0.00
8:35 pm 20:35 Sunny 78 25.4 47 8.1 33 33 ESE 8 13 30.01 1016 10 16 0.00 0.00
8:55 pm 20:55 Clear 76 24.5 47 8.5 36 36 ESE 3 6 30.02 1017 10 16 0.00 0.00
9:15 pm 21:15 Clear 74 23.5 48 9 40 40 ESE 6 9 30.02 1017 10 16 0.00 0.00
9:35 pm 21:35 Clear 74 23.1 48 8.7 40 40 ESE 7 11 30.03 1017 7 11 0.00 0.00
9:55 pm 21:55 Clear 73 22.8 47 8.3 40 40 ESE 6 9 30.03 1017 10 16 0.00 0.00
10:15 pm 22:15 Clear 72 22.3 47 8.1 40 40 ESE 7 11 30.03 1017 10 16 0.00 0.00
10:35 pm 22:35 Clear 71 21.7 46 7.9 41 41 ESE 5 7 30.03 1017 10 16 0.00 0.00
10:55 pm 22:55 Clear 70 21.2 47 8.2 43 43 Calm 30.03 1017 10 16 0.00 0.00
11:15 pm 23:15 Clear 68 20.1 48 8.9 49 49 ESE 5 7 30.04 1017 10 16 0.00 0.00
11:35 pm 23:35 undefined 68 20.2 47 8.5 47 47 ESE 6 9 30.04 1017 10 16 0.00 0.00
11:55 pm 23:55 undefined 69 20.5 47 8.3 46 46 Calm 30.03 1017 10 16 0.00 0.00

Powered by AerisWeather